Regional Weather Roundup
Issued by NWS

Home | Current Version | Previous Version | Text Only | Print | Product List | Glossary Off
Versions: 1 2 3 4 5 6 7 8 9 10 11 12 13 14 15 16 17 18 19 20 21 22 23 24 25 26 27 28 29 30 31 32 33 34 35 36 37 38 39 40 41 42 43 44 45 46 47 48 49 50

000
ASUS43 KLOT 060221
RWRIL

ILLINOIS REGIONAL WEATHER ROUNDUP
NATIONAL WEATHER SERVICE CHICAGO/ROMEOVILLE IL
900 PM CDT TUE MAY 05 2015

NOTE: "FAIR" INDICATES FEW OR NO CLOUDS BELOW 12,000 FEET WITH NO
SIGNIFICANT WEATHER AND/OR OBSTRUCTIONS TO VISIBILITY.

* THESE STATIONS ARE NOT UNDER NWS QUALITY CONTROL. THEY ALSO MAY NOT
  REPORT WEATHER SUCH AS PRECIPITATION OR FOG.

ILZ001-002-007-009-015-016-024-060300-
NORTHWEST ILLINOIS

CITY           SKY/WX    TMP DP  RH WIND       PRES   REMARKS
MOLINE         CLOUDY    63  59  87 E14       30.14R FOG
STERLING*      CLOUDY    55  52  88 E16       30.18S
SAVANNA*       CLOUDY    57  54  88 NE8       30.18S
$$

ILZ003-004-008-010-011-017-018-060300-
NORTH CENTRAL ILLINOIS

CITY           SKY/WX    TMP DP  RH WIND       PRES   REMARKS
ROCKFORD       CLOUDY    53  49  86 E8        30.22S
FREEPORT*      CLOUDY    52  50  93 E7        30.22R
ROCHELLE*      CLOUDY    53  51  94 E8        30.21R
DE KALB*       CLOUDY    50  49  94 E12       30.21S FOG
PERU*          PTCLDY    60  56  86 E15       30.18R
$$

ILZ005-006-012>014-019>023-060300-
NORTHEAST ILLINOIS

CITY           SKY/WX    TMP DP  RH WIND       PRES   REMARKS
CHICAGO-OHARE  CLOUDY    49  47  93 NE7       30.21S FOG
CHICAGO-MIDWAY MOCLDY    54  49  83 N7        30.21R
AURORA         CLOUDY    53  49  86 E13       30.20S FOG
LANSING*       CLOUDY    50  47  92 NE3       30.21R FOG
JOLIET*        CLOUDY    56  55  94 NE8       30.19S FOG
WAUKEGAN       CLOUDY    46  46 100 NE8       30.23R FOG
DUPAGE AIRPORT CLOUDY    51  50  96 NE8       30.21R FOG
KANKAKEE*      MOCLDY    59  57  93 N7        30.17R
WHEELING       FOG       47  46  97 NE6       30.24R VSB 1/2
MORRIS*        CLEAR     55  53  91 NE6       30.16S FOG
ROMEOVILLE*    CLOUDY    54  53  99 NE7       30.19S FOG
NORTHERLY ISL    N/A     47  45  93 N10         N/A
$$

LMZ740>746-060300-
SOUTHERN LAKE MICHIGAN

STATION/POSITION SKY/WX   TEMP    WIND        PRES    VSBY  WAVE
                          AIR SEA DIR/SP/G                  HT/PER
                          (F)     (DEG/KT/KT) (MB)    (MI)  (FT/S)
HARRISON CRIB              45     360/ 11/ 12   N/A
BURNHAM HARBOR             47     360/  7/ 11   N/A
CALUMET HARBOR             47     340/  7/  9   N/A
BURNS HARBOR               52     310/  4/  5 1022.7R
MICHIGAN CITY              57      50/  4/  5   N/A
MICHIGAN CITY 6N           52 50   70/  4/  6   N/A           1/ 4
ST. JOSEPH                 53 49  140/  6/ 10   N/A           1/ 3
$$

ILZ025>027-034>036-040-047-049-050-058-095>099-060300-
WEST-CENTRAL ILLINOIS

CITY           SKY/WX    TMP DP  RH WIND       PRES   REMARKS
QUINCY         MOCLDY    73  58  59 S5        30.10R
GALESBURG*     CLEAR     67  64  90 E8        30.13R FOG
MACOMB*        MOCLDY    70  65  85 E8        30.13R
JACKSONVILLE*  CLOUDY    79  54  42 S6        30.12R
PITTSFIELD*    MOCLDY    76  57  52 S3        30.12R
$$

ILZ028>032-037-038-041>044-048-051>054-059>061-060300-
CENTRAL ILLINOIS

CITY           SKY/WX    TMP DP  RH WIND       PRES   REMARKS
PONTIAC        CLOUDY    61  60  95 NE12      30.17R FOG
BLOOMINGTON    MOCLDY    66  63  90 E10       30.16R
DECATUR        MOCLDY    74  54  49 S5        30.13R
PEORIA         CLEAR     72  65  78 E13       30.13R HAZE
LACON*         MOCLDY    62  58  86 NE9       30.16R FOG
LINCOLN*       PTCLDY    71  65  81 NE5       30.11R
SPRINGFIELD    PTCLDY    76  54  46 S9        30.12R
TAYLORVILLE    CLOUDY    73  54  49 SW7       30.13R
$$

ILZ033-039-045-046-055>057-062-063-060300-
EAST-CENTRAL ILLINOIS

CITY           SKY/WX    TMP DP  RH WIND       PRES   REMARKS
CHAMPAIGN      PTCLDY    71  54  54 N5        30.14R
DANVILLE*      MOCLDY    65  60  85 NE6       30.13R
RANTOUL*       MOCLDY    70  65  85 NE9       30.15R
MATTOON        CLOUDY    75  55  49 S3        30.14R
PARIS*         MOCLDY    69  54  59 S7        30.15S
$$

ILZ079-100>102-060300-
SOUTHWEST ILLINOIS

CITY           SKY/WX    TMP DP  RH WIND       PRES   REMARKS
ALTON          PTCLDY    72  59  64 S7        30.14R
BELLEVILLE     MOCLDY    72  58  60 SE2       30.13R
CAHOKIA*       PTCLDY    72  60  66 SE6       30.12R
SPARTA*        PTCLDY    69  59  70 S5        30.14S
$$

ILZ064>066-069>071-074>076-080>082-084>086-088>090-092>094-060300-
SOUTH-CENTRAL ILLINOIS

CITY           SKY/WX    TMP DP  RH WIND       PRES   REMARKS
CARBONDALE     CLOUDY    70  60  70 SE3       30.14R
CAIRO*         PTCLDY    70  57  63 CALM      30.15R
EFFINGHAM*     MOCLDY    74  51  45 S3        30.16R
MARION         PTCLDY    70  63  78 CALM      30.15R
MT. VERNON     PTCLDY   N/A N/A N/A CALM      30.17R
CENTRALIA*     PTCLDY    69  57  64 CALM      30.16R
SALEM*         CLOUDY    75  56  52 CALM      30.15S
METROPOLIS*    PTCLDY    69  58  67 CALM      30.15R
$$

ILZ067-068-072-073-078-083-087-091-060300-
SOUTHEAST ILLINOIS

CITY           SKY/WX    TMP DP  RH WIND       PRES   REMARKS
LAWRENCEVILLE  CLEAR     70  55  59 S7        30.16
FLORA*         PTCLDY    69  55  59 S5        30.16R
FAIRFIELD*     CLEAR     72  56  58 CALM      30.15R
HARRISBURG*    CLEAR     70  56  62 E3        30.16R
ROBINSON*      PTCLDY    70  53  56 S5        30.16R
CARMI*         CLEAR     70  51  51 S6        30.15R
$$

ABBREVIATIONS USED IN REMARKS
   TC - TEMPERATURE IN CELSIUS
  WCI - WIND CHILL INDEX
   HX - HEAT INDEX
  VSB - VISIBILITY
$$



USA.gov is the U.S. government's official web portal to all federal, state and local government web resources and services.